Location: Campolattaro
(41.2833°N, 14.7333°E)
Time: 09:24:32
(UTC+00:00)

Cosmos 1934 Rocket - Pass Details

Date: 19 May 2025
Orbit: 938 x 997 km, 83.0° (Epoch: 23 June)

Event Time Altitude Azimuth Distance (km) Brightness Sun altitude
Rises 21:25:58 0° 357° (N) 3,672 8.1 -25.2°
Reaches altitude 10° 21:28:34 10° 2° (N) 2,730 7.2 -25.4°
Maximum altitude 21:34:40 52° 78° (ENE) 1,213 4.3 -25.8°
Enters shadow 21:35:34 48° 106° (ESE) 1,267 4.3 -25.9°
